sat.trackr.live / text

‹ back to catalog

YAOGAN-33 03

NORAD 57797 · 2023-136A

PAYLOAD ACTIVE UNKNOWN

§ Identity

Operator
Country
PRC
Launch date
2023-09-06
Launch site
JSC
Launch vehicle
Mass (kg)
RCS (m²)

External: N2YO · Heavens-Above · Gunter

§ Orbital elements

Epoch: 2026-09-21T23:27:10.944000Z

Period
98.71 min
Inclination
98.1926°
Eccentricity
0.0006457
Mean motion
14.58793200 rev/d
Perigee alt
692.5 km
Apogee alt
701.6 km
Semi-major
7,075.2 km
B*
5.7205e-5
RAAN
187.9784°
Arg perigee
243.3296°
Mean anomaly
116.7243°
Rev number
16,204

§ Raw data

YAOGAN-33 031 57797U 23136A   26264.97721000  .00000221  00000+0  57205-4 0  99932 57797  98.1926 187.9784 0006457 243.3296 116.7243 14.58793200162043

JSON: /api/v1/satellites/57797 · /tle

For live sub-satellite position, see the globe view (requires WebGL).

§ Visibility from observer

Set your observer location to see the next 7 days of passes ≥ 10°. The values pass through the URL so the page stays shareable.

No JS? Fill the form by hand. The geolocation button needs JavaScript.